EWG64P LIPZ-EDDS

Flight info

Callsign EWG64P
Flight time 0h 49m
Altitude 32000
Route ROKIB DCT NAXAV DCT UNIMI L12 MOGTI Q163 LBU
Aircraft A319/M-SDE3FGHIRWY/LB1

Departure

Time 2026-05-04 20:59
Airport Venice Marco Polo Airport (LIPZ)

Arrival

Time 2026-05-04 21:49
Airport Stuttgart Airport (EDDS)
Time Latitude Longitude Altitude Speed Heading
2026-05-04 20:21 45.50490 12.34211 19 ft 0 kts 268°
2026-05-04 20:47 45.50490 12.34235 19 ft 3 kts 268°
2026-05-04 20:47 45.50491 12.34262 19 ft 3 kts 268°
2026-05-04 20:47 45.50492 12.34289 20 ft 3 kts 268°
2026-05-04 20:48 45.50492 12.34315 19 ft 3 kts 233°
2026-05-04 20:48 45.50507 12.34326 19 ft 2 kts 171°
2026-05-04 20:48 45.50508 12.34325 19 ft 0 kts 171°
2026-05-04 20:53 45.50500 12.34328 16 ft 3 kts 171°
2026-05-04 20:54 45.50469 12.34335 17 ft 6 kts 170°
2026-05-04 20:54 45.50419 12.34347 19 ft 8 kts 172°
2026-05-04 20:54 45.50351 12.34353 20 ft 12 kts 178°
2026-05-04 20:54 45.50247 12.34358 17 ft 18 kts 178°
2026-05-04 20:55 45.50117 12.34328 15 ft 20 kts 226°
2026-05-04 20:55 45.50017 12.34193 11 ft 21 kts 222°
2026-05-04 20:55 45.49902 12.34046 11 ft 22 kts 222°
2026-05-04 20:55 45.49789 12.33901 11 ft 22 kts 222°
2026-05-04 20:56 45.49681 12.33763 15 ft 20 kts 221°
2026-05-04 20:56 45.49571 12.33635 15 ft 20 kts 217°
2026-05-04 20:56 45.49500 12.33613 17 ft 0 kts 124°
2026-05-04 20:56 45.49495 12.33624 16 ft 2 kts 124°
2026-05-04 20:57 45.49484 12.33647 17 ft 4 kts 124°
2026-05-04 20:57 45.49465 12.33688 15 ft 6 kts 124°
2026-05-04 20:57 45.49426 12.33740 14 ft 9 kts 137°
2026-05-04 20:57 45.49441 12.33806 13 ft 8 kts 58°
2026-05-04 20:58 45.49468 12.33841 12 ft 0 kts 43°
2026-05-04 20:59 45.49551 12.33950 13 ft 52 kts 43°
2026-05-04 20:59 45.50009 12.34546 12 ft 122 kts 42°
2026-05-04 20:59 45.50779 12.35554 38 ft 173 kts 45°
2026-05-04 20:59 45.51632 12.36745 630 ft 174 kts 48°
2026-05-04 21:00 45.52493 12.37994 1236 ft 179 kts 45°
2026-05-04 21:00 45.53435 12.39316 1627 ft 201 kts 44°
2026-05-04 21:00 45.54485 12.40764 2069 ft 217 kts 44°
2026-05-04 21:00 45.55672 12.42210 2569 ft 230 kts 23°
2026-05-04 21:01 45.57194 12.42415 3562 ft 218 kts 342°
2026-05-04 21:01 45.58437 12.41225 4361 ft 221 kts 311°
2026-05-04 21:01 45.59376 12.39517 5217 ft 218 kts 295°
2026-05-04 21:01 45.59776 12.37430 5963 ft 222 kts 276°
2026-05-04 21:02 45.59815 12.35113 6373 ft 246 kts 265°
2026-05-04 21:02 45.59789 12.32551 6774 ft 272 kts 272°
2026-05-04 21:02 45.59998 12.29787 7455 ft 281 kts 275°
2026-05-04 21:02 45.60222 12.27035 8534 ft 280 kts 274°
2026-05-04 21:03 45.60430 12.24252 9457 ft 282 kts 273°
2026-05-04 21:03 45.60619 12.21455 10373 ft 285 kts 272°
2026-05-04 21:03 45.60795 12.18486 10564 ft 315 kts 271°
2026-05-04 21:03 45.60963 12.15293 11123 ft 327 kts 271°
2026-05-04 21:04 45.61145 12.12035 11893 ft 331 kts 271°
2026-05-04 21:04 45.61346 12.08734 12714 ft 335 kts 272°
2026-05-04 21:04 45.61561 12.05411 13556 ft 337 kts 272°
2026-05-04 21:04 45.61783 12.02056 14238 ft 344 kts 272°
2026-05-04 21:05 45.62007 11.98613 14822 ft 350 kts 272°
2026-05-04 21:05 45.62299 11.95129 15434 ft 358 kts 281°
2026-05-04 21:05 45.63405 11.91934 16144 ft 365 kts 308°
2026-05-04 21:05 45.65407 11.89694 16907 ft 371 kts 332°
2026-05-04 21:06 45.67798 11.88298 17677 ft 372 kts 335°
2026-05-04 21:06 45.70095 11.86614 18409 ft 372 kts 328°
2026-05-04 21:06 45.72273 11.84613 19013 ft 373 kts 325°
2026-05-04 21:06 45.74504 11.82667 19610 ft 377 kts 328°
2026-05-04 21:07 45.76806 11.80825 20177 ft 381 kts 330°
2026-05-04 21:07 45.79174 11.79064 20737 ft 385 kts 332°
2026-05-04 21:07 45.81592 11.77362 21320 ft 389 kts 332°
2026-05-04 21:07 45.84052 11.75683 21873 ft 393 kts 333°
2026-05-04 21:08 45.86539 11.74005 22450 ft 397 kts 333°
2026-05-04 21:08 45.89050 11.72308 23002 ft 401 kts 333°
2026-05-04 21:08 45.91577 11.70587 23516 ft 404 kts 333°
2026-05-04 21:08 45.94126 11.68839 23982 ft 407 kts 332°
2026-05-04 21:09 45.96688 11.67072 24426 ft 410 kts 333°
2026-05-04 21:09 45.99267 11.65287 24871 ft 413 kts 332°
2026-05-04 21:09 46.01868 11.63480 25337 ft 416 kts 332°
2026-05-04 21:09 46.04481 11.61653 25761 ft 419 kts 332°
2026-05-04 21:10 46.07112 11.59813 26177 ft 422 kts 332°
2026-05-04 21:10 46.09762 11.57962 26611 ft 425 kts 332°
2026-05-04 21:10 46.12427 11.56100 27037 ft 427 kts 332°
2026-05-04 21:10 46.15110 11.54226 27448 ft 430 kts 332°
2026-05-04 21:11 46.17810 11.52337 27885 ft 433 kts 332°
2026-05-04 21:11 46.20529 11.50436 28302 ft 435 kts 332°
2026-05-04 21:11 46.23261 11.48524 28712 ft 438 kts 332°
2026-05-04 21:11 46.26007 11.46599 29123 ft 440 kts 331°
2026-05-04 21:12 46.28771 11.44657 29497 ft 443 kts 331°
2026-05-04 21:12 46.31546 11.42705 29896 ft 445 kts 331°
2026-05-04 21:12 46.34339 11.40735 30264 ft 448 kts 331°
2026-05-04 21:12 46.37145 11.38753 30591 ft 450 kts 331°
2026-05-04 21:13 46.39966 11.36762 30928 ft 452 kts 331°
2026-05-04 21:13 46.42797 11.34765 31146 ft 454 kts 331°
2026-05-04 21:13 46.44682 11.33433 31338 ft 455 kts 331°
2026-05-04 21:13 46.47536 11.31424 31684 ft 457 kts 332°
2026-05-04 21:14 46.50415 11.29493 32143 ft 455 kts 333°
2026-05-04 21:14 46.53304 11.27641 32660 ft 452 kts 333°
2026-05-04 21:14 46.56186 11.25832 33161 ft 450 kts 334°
2026-05-04 21:14 46.59053 11.24037 33677 ft 448 kts 333°
2026-05-04 21:15 46.61907 11.22233 34173 ft 446 kts 333°
2026-05-04 21:15 46.64748 11.20413 34517 ft 446 kts 333°
2026-05-04 21:15 46.67585 11.18580 34744 ft 446 kts 333°
2026-05-04 21:15 46.70414 11.16740 34987 ft 445 kts 333°
2026-05-04 21:16 46.73237 11.14899 35235 ft 444 kts 333°
2026-05-04 21:16 46.76056 11.13059 35483 ft 444 kts 333°
2026-05-04 21:16 46.78874 11.11220 35757 ft 443 kts 333°
2026-05-04 21:16 46.81683 11.09386 36001 ft 442 kts 333°
2026-05-04 21:17 46.84489 11.07555 36109 ft 440 kts 333°
2026-05-04 21:17 46.87271 11.05739 36109 ft 435 kts 332°
2026-05-04 21:17 46.92737 11.02093 36108 ft 432 kts 332°
2026-05-04 21:18 46.98201 10.98422 36114 ft 432 kts 332°
2026-05-04 21:18 47.03693 10.94823 36101 ft 432 kts 333°
2026-05-04 21:19 47.09195 10.91256 36109 ft 432 kts 333°
2026-05-04 21:19 47.14696 10.87675 36092 ft 432 kts 333°
2026-05-04 21:20 47.20184 10.84067 36082 ft 432 kts 333°
2026-05-04 21:20 47.25638 10.80461 36060 ft 433 kts 332°
2026-05-04 21:21 47.31165 10.76808 36046 ft 433 kts 332°
2026-05-04 21:21 47.36633 10.73190 36039 ft 433 kts 332°
2026-05-04 21:22 47.42159 10.69640 36016 ft 434 kts 334°
2026-05-04 21:22 47.47796 10.66388 36009 ft 435 kts 336°
2026-05-04 21:23 47.53441 10.63199 36016 ft 435 kts 335°
2026-05-04 21:23 47.59071 10.59940 36004 ft 435 kts 335°
2026-05-04 21:24 47.64709 10.56612 35992 ft 436 kts 334°
2026-05-04 21:24 47.70348 10.53274 36001 ft 436 kts 335°
2026-05-04 21:25 47.75996 10.49939 36004 ft 437 kts 335°
2026-05-04 21:25 47.81650 10.46594 35991 ft 437 kts 335°
2026-05-04 21:26 47.87307 10.43237 35824 ft 437 kts 335°
2026-05-04 21:26 47.90135 10.41559 35183 ft 438 kts 335°
2026-05-04 21:26 47.92973 10.39873 34557 ft 438 kts 335°
2026-05-04 21:27 47.95792 10.38197 34071 ft 435 kts 335°
2026-05-04 21:27 47.98603 10.36523 33513 ft 433 kts 335°
2026-05-04 21:27 48.01394 10.34863 32924 ft 431 kts 335°
2026-05-04 21:27 48.04174 10.33204 32393 ft 429 kts 335°
2026-05-04 21:28 48.06933 10.31553 31867 ft 426 kts 335°
2026-05-04 21:28 48.09676 10.29909 31376 ft 424 kts 335°
2026-05-04 21:28 48.12405 10.28273 30888 ft 421 kts 335°
2026-05-04 21:28 48.15122 10.26648 30412 ft 419 kts 335°
2026-05-04 21:29 48.17828 10.25026 29906 ft 417 kts 335°
2026-05-04 21:29 48.20431 10.23175 29386 ft 411 kts 326°
2026-05-04 21:29 48.22790 10.20822 28872 ft 405 kts 317°
2026-05-04 21:29 48.24965 10.18178 28397 ft 401 kts 316°
2026-05-04 21:30 48.27126 10.15553 27951 ft 398 kts 317°
2026-05-04 21:30 48.29275 10.12960 27516 ft 395 kts 317°
2026-05-04 21:30 48.31415 10.10382 27090 ft 392 kts 317°
2026-05-04 21:30 48.33532 10.07824 26668 ft 389 kts 317°
2026-05-04 21:31 48.37719 10.02741 25824 ft 384 kts 317°
2026-05-04 21:31 48.39786 10.00220 25405 ft 381 kts 317°
2026-05-04 21:31 48.41838 9.97717 24990 ft 379 kts 317°
2026-05-04 21:32 48.43879 9.95225 24593 ft 376 kts 316°
2026-05-04 21:32 48.45904 9.92750 24146 ft 374 kts 316°
2026-05-04 21:32 48.47919 9.90283 23719 ft 372 kts 316°
2026-05-04 21:32 48.49921 9.87824 23258 ft 370 kts 316°
2026-05-04 21:33 48.51906 9.85383 22783 ft 367 kts 316°
2026-05-04 21:33 48.53882 9.82956 22326 ft 364 kts 317°
2026-05-04 21:33 48.55839 9.80553 21885 ft 362 kts 317°
2026-05-04 21:33 48.57785 9.78161 21446 ft 359 kts 317°
2026-05-04 21:34 48.59713 9.75774 21040 ft 357 kts 315°
2026-05-04 21:34 48.61422 9.73166 20638 ft 351 kts 308°
2026-05-04 21:34 48.63059 9.70431 20230 ft 349 kts 308°
2026-05-04 21:34 48.64685 9.67719 19813 ft 347 kts 308°
2026-05-04 21:35 48.66303 9.65027 19412 ft 345 kts 308°
2026-05-04 21:35 48.67912 9.62355 19026 ft 343 kts 309°
2026-05-04 21:35 48.69509 9.59703 18638 ft 342 kts 309°
2026-05-04 21:35 48.71110 9.57039 18238 ft 341 kts 309°
2026-05-04 21:36 48.72708 9.54399 17817 ft 340 kts 312°
2026-05-04 21:36 48.74620 9.52294 17417 ft 342 kts 332°
2026-05-04 21:36 48.76896 9.51271 17029 ft 343 kts 353°
2026-05-04 21:36 48.79269 9.51461 16635 ft 343 kts 13°
2026-05-04 21:37 48.81459 9.52833 16186 ft 343 kts 33°
2026-05-04 21:37 48.83223 9.55247 15687 ft 343 kts 54°
2026-05-04 21:37 48.84344 9.58421 15079 ft 344 kts 74°
2026-05-04 21:37 48.85009 9.61933 14478 ft 349 kts 77°
2026-05-04 21:38 48.85662 9.65510 13887 ft 353 kts 77°
2026-05-04 21:38 48.86317 9.69115 13226 ft 356 kts 77°
2026-05-04 21:38 48.86978 9.72741 12580 ft 357 kts 77°
2026-05-04 21:38 48.87646 9.76387 11931 ft 358 kts 77°
2026-05-04 21:39 48.88162 9.80071 11292 ft 355 kts 90°
2026-05-04 21:39 48.87709 9.83680 10677 ft 346 kts 118°
2026-05-04 21:39 48.86253 9.86476 10156 ft 334 kts 146°
2026-05-04 21:39 48.84224 9.87914 9991 ft 314 kts 170°
2026-05-04 21:40 48.82143 9.87721 9987 ft 293 kts 201°
2026-05-04 21:40 48.80547 9.86014 9990 ft 277 kts 230°
2026-05-04 21:40 48.79730 9.83427 9754 ft 276 kts 257°
2026-05-04 21:40 48.79604 9.80521 9338 ft 274 kts 263°
2026-05-04 21:41 48.79283 9.77755 8957 ft 261 kts 253°
2026-05-04 21:41 48.78842 9.75128 8567 ft 253 kts 253°
2026-05-04 21:41 48.78401 9.72601 8199 ft 243 kts 252°
2026-05-04 21:41 48.77950 9.70157 7865 ft 241 kts 252°
2026-05-04 21:42 48.77486 9.67661 7237 ft 250 kts 252°
2026-05-04 21:42 48.77014 9.65111 6668 ft 251 kts 252°
2026-05-04 21:42 48.76550 9.62595 6299 ft 244 kts 253°
2026-05-04 21:42 48.76100 9.60165 5967 ft 235 kts 253°
2026-05-04 21:43 48.75665 9.57821 5660 ft 227 kts 253°
2026-05-04 21:43 48.75245 9.55563 5365 ft 216 kts 253°
2026-05-04 21:43 48.74853 9.53454 5132 ft 201 kts 253°
2026-05-04 21:43 48.74481 9.51455 4831 ft 192 kts 253°
2026-05-04 21:44 48.74122 9.49533 4579 ft 188 kts 254°
2026-05-04 21:44 48.73767 9.47631 4325 ft 187 kts 255°
2026-05-04 21:44 48.73414 9.45741 4076 ft 185 kts 255°
2026-05-04 21:44 48.73074 9.43927 3838 ft 169 kts 255°
2026-05-04 21:45 48.72769 9.42299 3609 ft 153 kts 256°
2026-05-04 21:45 48.72488 9.40796 3421 ft 145 kts 256°
2026-05-04 21:45 48.72216 9.39343 3234 ft 142 kts 257°
2026-05-04 21:45 48.71948 9.37916 3052 ft 140 kts 257°
2026-05-04 21:46 48.71771 9.36969 2913 ft 139 kts 257°
2026-05-04 21:46 48.71420 9.35100 2674 ft 138 kts 257°
2026-05-04 21:46 48.71159 9.33711 2481 ft 136 kts 258°
2026-05-04 21:46 48.70897 9.32321 2302 ft 135 kts 258°
2026-05-04 21:47 48.70641 9.30958 2111 ft 134 kts 256°
2026-05-04 21:47 48.70385 9.29602 1925 ft 133 kts 255°
2026-05-04 21:47 48.70131 9.28269 1744 ft 131 kts 255°
2026-05-04 21:47 48.69879 9.26928 1583 ft 134 kts 254°
2026-05-04 21:48 48.69627 9.25570 1458 ft 134 kts 255°
2026-05-04 21:48 48.69370 9.24215 1362 ft 131 kts 256°
2026-05-04 21:48 48.69126 9.22906 1287 ft 123 kts 254°
2026-05-04 21:48 48.68924 9.21859 1285 ft 79 kts 254°
2026-05-04 21:49 48.68820 9.21309 1285 ft 29 kts 254°
2026-05-04 21:49 48.68801 9.21210 1288 ft 3 kts 255°
2026-05-04 21:49 48.68814 9.21131 1285 ft 15 kts 284°
2026-05-04 21:49 48.68844 9.20957 1285 ft 17 kts 284°
2026-05-04 21:50 48.68875 9.20780 1285 ft 17 kts 287°
2026-05-04 21:50 48.68953 9.20643 1287 ft 18 kts 314°
2026-05-04 21:50 48.69010 9.20555 1288 ft 18 kts 314°
2026-05-04 21:50 48.69054 9.20396 1285 ft 17 kts 254°
2026-05-04 21:51 48.69019 9.20218 1285 ft 18 kts 254°
2026-05-04 21:51 48.68981 9.20035 1288 ft 19 kts 244°
2026-05-04 21:51 48.68911 9.19867 1285 ft 18 kts 237°
2026-05-04 21:51 48.68861 9.19715 1289 ft 13 kts 251°
2026-05-04 21:52 48.68886 9.19662 1285 ft 7 kts 357°
2026-05-04 21:52 48.68937 9.19648 1285 ft 0 kts 343°
2026-05-04 21:52 48.68938 9.19647 1285 ft 0 kts 343°
2026-05-04 21:52 48.68942 9.19645 1287 ft 0 kts 343°